ATS 1 1 02608U 66110A 09182.65472496 -.00000157 00000-0 10000-3 0 9777 2 02608 007.8880 310.5411 0003839 191.4825 168.5980 01.00292067 72651 ATS 3 1 03029U 67111A 09182.39915061 -.00000101 +00000-0 +10000-3 0 04851 2 03029 009.4148 317.9565 0014607 041.2060 318.9607 01.00272455152524 DEBUT (ORIZURU) 1 20479U 90013B 09183.81056720 +.00000030 +00000-0 +13244-3 0 03045 2 20479 099.0706 103.3016 0539745 129.9289 235.0551 12.83685351909036 MAQSAT H 1 25023U 97066A 09183.10776635 -.00000013 +00000-0 -22506-3 0 06728 2 25023 007.5832 204.5354 6496602 172.5982 206.2797 03.09492220131817 MAQSAT B 1 25024U 97066B 09183.13080853 -.00000004 +00000-0 -16318-3 0 07277 2 25024 007.5822 200.9045 6506580 178.8901 183.9680 03.08766508131714 TEAMSAT 1 25025U 97066C 09184.00087154 -.00000119 00000-0 -97267-3 0 7310 2 25025 007.6107 215.2756 6505819 150.9754 270.7806 03.07908746131368 OPAL 1 26063U 00004C 09183.55175613 -.00000020 +00000-0 +13477-4 0 05462 2 26063 100.2125 332.9113 0036685 217.6713 142.1901 14.35866866494151 FALCONSAT 1 26064U 00004D 09183.52754819 +.00000005 +00000-0 +22387-4 0 05238 2 26064 100.2129 330.9023 0037879 224.6451 135.1674 14.35419961494011 PICOSAT 1&2 (TETHERED) 1 26080U 00004H 09183.46072483 .00000119 00000-0 56115-4 0 1114 2 26080 100.2242 356.4332 0033176 166.8462 193.3608 14.40340897493688 PICOSAT 3 1 26091U 00004J 09183.51439041 +.00000135 +00000-0 +57415-4 0 06543 2 26091 100.2224 007.8735 0031963 129.1946 231.2095 14.43406090493633 PICOSAT 4 1 26092U 00004K 09183.41594751 +.00000065 +00000-0 +39129-4 0 04983 2 26092 100.2105 350.5157 0035516 162.7216 197.5205 14.40286319492890 PICOSAT 5 1 26093U 00004L 09183.56579737 .00000252 00000-0 89187-4 0 3882 2 26093 100.2225 014.8622 0033711 111.9204 248.5584 14.44948608494270 PICOSAT 6 1 26094U 00004M 09183.99905073 .00000076 00000-0 43030-4 0 7993 2 26094 100.2169 349.4985 0035938 171.4685 188.7116 14.39575366492482 SNAP 1 1 26386U 00033C 09182.73459046 +.00000002 +00000-0 +97830-5 0 07485 2 26386 098.3816 215.1010 0012583 143.8692 216.3369 14.65147184481299 CHAMP 1 26405U 00039B 09183.86822623 +.00009159 +00000-0 +38854-4 0 09139 2 26405 087.2227 307.1403 0003090 082.0608 278.1020 15.85070202512133 PICOSAT 9 1 26930U 01043B 09183.66197650 -.00000079 +00000-0 +16594-5 0 01875 2 26930 067.0027 002.5863 0001821 255.2025 104.8859 14.30047173404958 PROBA 1 1 26958U 01049B 09183.89729024 +.00000030 +00000-0 +88361-5 0 07505 2 26958 097.6216 246.0170 0080758 316.7977 042.6887 14.89673400418168 CUTE-1 1 27844U 03031E 09183.55729194 .00000033 00000-0 35778-4 0 6138 2 27844 098.7129 192.5045 0011062 097.9347 262.3085 14.20644658311447 CANX-1 1 27847U 03031H 09183.60659676 +.00000011 +00000-0 +25132-4 0 05402 2 27847 098.7063 193.5083 0010323 077.1051 283.1255 14.20967078311489 CUBESAT XI-IV 1 27848U 03031J 09183.53697069 +.00000022 +00000-0 +30798-4 0 05612 2 27848 098.7152 191.5459 0010655 101.3336 258.9031 14.20445968311401 NAXING 1 1 28221U 04012B 09183.79257116 -.00000091 00000-0 -44308-5 0 2136 2 28221 097.4888 218.1829 0012315 142.1762 218.0360 14.87901385282634 ST5-A 1 28980U 06008A 09183.90333065 +.00002017 +00000-0 +11976-3 0 00360 2 28980 105.6915 183.7147 2357382 195.9806 155.2197 10.61352780126658 ST5-B 1 28981U 06008B 09183.79954734 +.00005717 +15703-5 +19947-3 0 00862 2 28981 105.6717 203.7359 2335957 176.2431 186.0114 10.73777118127489 ST5-C 1 28982U 06008C 09183.97004902 +.00004062 +15696-5 +17169-3 0 00818 2 28982 105.6905 198.8549 2345804 183.4788 174.6834 10.69677266127223 GENESIS 1 1 29252U 06029A 09183.89241473 +.00000038 +00000-0 +16006-4 0 08241 2 29252 064.5084 304.8177 0031684 208.6126 151.3251 15.03394484163274 FALCONSAT 3 1 30776U 07006E 09183.90592780 +.00000214 +00000-0 +18550-4 0 06051 2 30776 035.4347 004.0402 0001498 007.0094 353.0642 15.03263596127466 GENESIS 2 1 31789U 07028A 09183.91715778 +.00000041 +00000-0 +16514-4 0 05713 2 31789 064.5039 335.8505 0057992 260.2316 099.2244 15.03050619110493